Location: Lake Arresoe
(56.0000°N, 12.5000°E)
Time: 09:45:00
(UTC+01:00)

ISS - Visible Passes

Search period start: 21 February 2019 00:00
Search period end: 03 March 2019 00:00
Orbit: 403 x 411 km, 51.6° (Epoch: 21 February)

Date Brightness Start Highest point End Pass type
(mag) Time Alt. Az. Time Alt. Az. Time Alt. Az.
25 Feb -1.0 06:29:08 10° S 06:31:11 16° SSE 06:33:14 10° ESE visible
26 Feb -0.8 05:38:57 10° SSE 05:40:00 11° SE 05:41:01 10° SE visible
27 Feb -1.7 06:21:48 10° SSW 06:24:27 23° SSE 06:27:08 10° ESE visible
28 Feb -1.4 05:30:52 10° SSW 05:33:10 18° SSE 05:35:29 10° ESE visible
01 Mar -1.2 04:41:11 12° SSE 04:41:55 13° SSE 04:43:32 10° ESE visible
01 Mar -2.3 06:14:49 10° SW 06:17:45 31° SSE 06:20:42 10° ESE visible
02 Mar -2.1 05:24:28 15° SSW 05:26:23 26° SSE 05:29:11 10° ESE visible
